Theta_e
313 317 319 318 317 313 316 318 315 317 317 316 316 316 316 315 316 315 324 328 330 332 334 336 337 340 343 338 336 335 336 335 333 331 328 327 328 329 330 338 338 337 337 337 338 330 326 327 324
317 319 319 311 314 315 315 313 318 317 316 315 316 316 316 317 315 321 326 328 329 332 335 334 336 340 342 343 339 338 337 335 333 332 330 329 329 329 334 338 338 337 337 337 336 327 324 324 323
319 318 312 312 310 315 315 315 315 316 315 315 316 315 315 317 317 320 324 329 328 333 334 334 335 339 342 341 341 339 337 336 335 333 332 333 333 331 331 335 336 336 336 334 331 324 322 322 321
318 314 309 312 316 314 315 314 313 316 316 314 314 316 313 315 316 322 326 327 328 332 334 333 333 335 341 339 339 337 336 335 337 336 335 338 335 332 334 334 335 333 332 332 330 327 322 320 317
314 307 312 314 316 314 315 314 314 316 315 315 314 314 312 316 322 323 324 325 326 331 334 334 333 334 335 336 336 336 335 335 334 336 336 337 336 333 332 332 332 331 330 329 329 326 321 317 309
312 307 312 314 315 313 315 314 315 313 311 312 314 314 312 315 319 320 322 324 327 331 334 335 334 334 334 335 335 337 337 336 335 335 336 335 333 333 332 327 330 330 329 327 327 324 320 312 302
313 309 313 314 314 314 315 311 314 313 312 314 313 314 311 314 316 317 322 324 327 331 332 333 335 334 335 336 336 337 338 337 336 336 337 336 335 334 332 330 325 328 328 326 326 322 315 306 300
309 309 314 313 313 315 313 311 312 313 313 310 312 311 312 313 316 317 322 325 326 327 329 332 335 335 335 337 338 338 339 338 335 335 336 336 335 335 333 331 328 325 327 326 325 320 312 301 299
308 309 311 315 314 314 312 313 312 310 311 309 311 312 311 313 316 317 318 320 324 327 327 331 333 336 336 336 337 338 338 337 335 333 333 333 336 336 334 332 330 325 324 324 324 320 310 301 299
309 307 310 312 313 315 314 313 313 312 310 311 310 309 311 312 314 314 313 313 315 319 325 328 333 333 336 337 338 339 337 335 335 334 333 333 334 334 333 332 330 327 325 323 323 320 312 301 299
313 311 312 315 313 314 314 313 312 312 312 310 311 308 307 307 306 305 305 305 306 309 313 319 327 333 335 335 337 338 339 335 333 334 333 333 332 332 332 330 328 328 326 323 320 318 313 305 300
317 315 314 315 313 313 314 313 313 312 312 309 307 305 303 302 303 303 303 304 305 307 309 311 316 326 331 334 334 334 337 337 333 333 333 332 332 331 331 330 329 327 326 324 320 317 313 308 300
315 314 314 313 311 311 312 312 312 310 308 306 304 304 302 301 301 302 302 303 303 305 307 310 311 314 325 330 332 332 332 335 336 334 334 334 333 329 329 329 329 327 326 325 320 317 315 310 303
312 313 311 310 310 310 312 311 311 311 306 304 304 301 300 300 299 299 299 299 301 303 305 309 311 313 318 327 330 331 331 331 333 333 332 333 333 331 328 327 329 327 325 324 322 317 315 312 307
312 312 309 309 310 310 308 312 311 310 304 303 302 299 300 299 298 298 298 298 299 301 304 309 312 315 318 323 328 330 332 333 333 333 333 332 332 332 329 327 326 325 325 324 321 317 315 313 310
311 309 310 311 311 311 311 313 311 309 304 303 300 299 299 298 298 297 297 298 299 302 304 308 312 317 320 323 326 328 329 331 331 332 332 330 331 331 330 330 328 327 325 323 322 318 316 314 311
308 309 310 311 311 311 310 311 310 307 305 302 300 299 299 298 297 297 296 297 298 300 303 307 311 314 318 321 322 324 325 326 326 327 328 329 329 329 329 328 328 328 325 323 322 318 315 313 312
309 310 310 311 312 311 312 310 308 308 308 302 300 298 298 298 296 295 295 296 298 299 301 304 308 311 313 316 318 318 318 319 320 320 322 323 324 324 325 326 326 325 324 322 320 317 315 313 311
309 310 311 310 310 312 310 309 309 308 304 301 300 299 298 297 296 294 294 295 296 297 298 300 303 306 311 311 311 308 307 308 308 309 313 315 317 320 320 318 317 319 320 318 317 315 313 312 308
309 311 310 310 309 310 310 311 309 305 304 302 301 299 298 296 294 293 293 293 294 295 295 297 298 301 303 305 303 302 303 301 300 301 302 304 308 311 312 313 314 313 312 312 312 312 311 309 307
310 310 311 312 311 309 311 310 311 305 303 302 300 298 296 295 294 293 292 291 292 293 294 296 296 297 299 300 302 301 301 300 300 298 299 299 300 301 303 304 305 306 308 308 306 306 305 304 305
313 310 311 312 311 313 309 313 309 306 304 302 299 297 295 294 293 293 291 290 290 290 292 293 294 295 295 297 297 296 292 290 290 292 294 295 296 297 298 299 300 300 300 300 302 303 302 301 300
313 309 310 310 309 309 309 310 308 306 306 302 299 297 295 294 292 291 291 289 289 289 289 289 290 290 290 290 290 289 288 287 287 287 288 287 287 288 290 293 295 296 296 296 297 298 301 299 298
308 308 309 307 308 312 310 310 310 309 308 302 299 297 295 294 292 292 291 289 288 288 288 288 288 287 287 287 287 286 286 285 285 285 285 285 285 285 285 285 286 287 289 291 293 294 296 297 298
308 311 314 314 312 316 310 310 310 306 303 303 300 297 295 293 292 291 290 289 288 288 288 288 287 286 286 286 285 285 285 285 285 285 285 285 285 285 285 285 285 285 285 285 285 288 290 292 294
307 311 314 315 313 312 309 314 312 301 299 300 298 297 294 293 292 291 291 289 287 287 287 287 287 286 286 285 285 285 285 285 285 285 284 284 284 284 284 284 284 284 284 284 284 285 285 285 286
310 312 310 311 296 308 312 309 304 300 299 298 297 296 295 294 292 291 291 290 289 287 286 286 286 286 286 286 286 285 285 285 285 284 284 284 283 283 283 283 283 284 283 283 283 283 283 284 284
310 310 314 310 311 313 311 310 311 303 301 299 297 296 295 294 293 291 290 290 289 288 287 286 286 286 286 286 286 286 285 285 285 284 284 283 283 283 283 283 283 283 283 282 282 282 283 282 283
311 312 311 311 309 309 306 309 304 305 302 300 298 297 295 293 291 290 290 290 289 288 287 287 286 286 286 286 286 285 285 285 285 285 283 283 283 283 283 282 282 282 282 281 281 280 280 280 281
308 310 310 314 311 307 308 311 303 302 301 300 298 297 294 293 291 289 289 289 288 288 287 287 287 286 286 286 286 286 285 285 285 284 283 282 282 282 281 281 281 281 280 280 279 279 279 279 279
Wind_Speed
10 9 6 4 4 5 2 1 2 2 2 1 1 2 2 2 3 3 3 15 2 16 26 26 25 23 20 19 17 15 12 10 9 9 8 7 7 7 6 8 7 6 5 5 5 3 3 4 5
9 5 3 2 5 4 4 4 1 1 2 2 1 2 2 2 2 3 2 13 5 13 21 27 26 23 21 19 18 17 14 12 10 9 8 7 6 6 7 8 6 4 4 4 3 2 1 2 3
4 4 4 4 3 3 3 3 2 2 3 2 2 1 2 2 2 2 4 12 7 14 18 26 26 24 22 21 19 17 14 12 11 10 8 7 7 6 6 7 6 3 3 0 1 1 1 0 0
3 6 4 5 2 2 2 2 3 1 2 4 2 2 3 3 2 2 3 9 9 14 17 22 26 25 22 21 19 17 15 13 12 10 9 9 7 7 6 6 4 2 3 2 3 4 4 4 3
5 3 4 4 3 3 2 2 4 2 1 2 2 4 5 2 1 3 5 6 9 14 17 20 25 26 25 23 21 19 17 16 14 12 11 11 9 7 8 7 5 4 3 2 4 6 6 5 4
4 3 4 1 2 4 3 1 1 2 2 4 2 3 4 5 1 1 5 5 7 12 16 17 22 26 26 25 23 21 18 17 15 13 13 11 11 11 11 7 8 7 5 4 5 6 6 5 3
5 4 3 2 3 3 3 6 2 2 1 1 1 3 4 5 5 5 5 4 7 11 14 16 19 23 25 25 23 22 20 18 17 16 16 14 13 14 13 9 8 9 8 6 7 7 7 5 4
4 4 2 1 1 1 5 6 1 2 2 5 2 2 4 3 5 6 5 5 8 12 15 17 18 21 24 25 24 23 22 20 19 18 18 16 16 16 16 12 8 6 9 8 9 9 7 6 6
3 4 1 2 2 2 4 6 1 2 1 4 2 1 4 9 4 6 6 9 11 14 16 18 20 21 23 25 25 24 22 21 19 20 19 16 17 18 17 15 10 8 10 10 9 10 8 7 7
4 4 7 4 3 2 4 2 4 5 7 3 3 7 6 12 6 7 9 13 14 15 16 18 21 23 23 24 24 24 22 21 21 20 19 19 18 21 20 17 13 11 11 10 10 10 10 9 9
2 4 5 4 4 1 2 3 3 1 5 6 5 9 10 11 12 12 12 12 13 13 14 15 21 24 25 25 25 25 26 23 22 23 21 20 19 21 21 18 16 14 13 13 13 14 13 10 10
0 4 3 1 3 1 3 3 6 4 7 7 5 4 5 9 12 15 16 17 17 13 9 9 16 23 26 26 25 24 25 27 25 24 22 21 21 21 22 20 18 17 16 16 16 17 15 13 12
2 3 2 6 6 5 1 6 4 9 9 6 10 11 10 10 14 15 15 17 18 19 16 11 8 18 25 26 25 23 22 26 28 26 24 24 22 22 22 22 20 19 17 18 19 19 17 15 15
3 2 6 7 8 3 4 2 2 5 9 8 9 9 9 12 16 18 24 23 22 20 20 18 10 8 20 24 24 22 19 18 21 21 22 24 24 23 21 24 23 20 20 20 19 20 18 17 17
1 5 7 6 2 4 7 1 6 8 9 9 9 8 9 14 20 18 20 21 22 21 20 21 17 10 7 15 18 18 17 17 15 15 15 18 21 23 25 24 23 23 22 20 20 20 20 20 19
3 3 4 3 2 1 3 8 6 4 10 7 7 7 8 10 15 21 21 22 22 23 24 23 20 18 9 1 7 8 9 10 12 13 14 14 17 21 22 23 23 24 23 20 23 22 22 21 22
5 3 4 8 1 2 3 5 7 4 8 7 6 7 7 9 17 23 23 22 23 24 26 28 26 26 24 19 14 11 7 4 2 4 7 11 13 17 19 21 22 23 23 25 24 23 22 22 22
5 4 4 5 1 3 2 7 10 8 4 8 8 7 8 9 11 19 23 24 25 26 26 27 27 25 23 26 26 25 23 21 17 15 12 9 9 9 11 15 19 20 21 21 22 21 21 22 21
3 4 5 3 4 1 6 6 12 6 6 8 7 7 7 8 10 18 23 27 30 32 33 33 32 29 25 21 19 26 27 25 24 24 21 19 15 11 11 12 13 14 14 15 16 18 20 21 19
2 2 6 5 5 5 7 9 5 7 4 5 8 7 7 5 7 15 22 27 31 31 33 34 34 31 28 26 24 20 16 24 27 24 25 22 19 18 16 16 12 13 12 13 15 17 19 19 18
5 6 4 7 4 2 3 6 2 5 8 10 8 6 6 6 6 8 16 22 26 29 31 34 34 32 31 28 23 22 20 24 27 28 26 25 23 22 20 19 19 16 13 12 14 15 17 19 17
5 8 8 5 3 4 2 4 5 5 5 5 5 6 6 6 5 7 11 18 21 23 26 29 31 31 30 30 32 33 32 27 26 26 25 25 24 24 22 21 20 20 19 17 15 13 14 17 21
7 4 6 3 4 3 4 2 6 7 4 6 6 5 5 5 5 5 10 15 17 20 25 27 29 30 29 30 31 31 31 28 27 27 28 28 29 29 28 25 21 19 18 18 18 17 16 15 17
5 4 5 4 3 1 8 8 4 5 4 5 6 8 7 6 6 8 10 13 16 19 21 25 27 28 26 28 29 29 30 29 28 28 29 29 28 29 29 28 27 26 24 23 19 16 15 15 16
4 5 3 4 2 5 4 2 7 3 4 9 14 9 8 7 6 6 8 10 14 16 17 20 22 25 23 25 26 26 27 26 26 25 25 25 26 27 27 27 27 27 25 24 24 23 19 16 16
6 7 5 7 4 4 1 6 4 2 4 9 11 9 7 7 6 6 9 10 12 13 15 16 18 19 20 22 23 22 22 22 22 21 21 22 22 22 22 23 24 24 24 25 25 23 23 22 19
5 4 3 5 2 2 4 3 3 4 3 5 8 7 8 7 7 7 11 11 12 12 12 12 14 16 16 17 18 19 19 19 20 20 19 20 20 21 21 22 23 24 24 25 26 27 26 24 24
4 6 3 2 1 5 5 6 5 6 10 8 8 10 8 7 8 7 12 11 10 10 10 10 11 12 13 13 13 14 15 16 17 17 19 18 19 21 23 26 27 29 29 29 29 29 29 29 29
2 3 3 3 4 5 2 7 4 10 13 14 13 11 11 10 8 7 13 13 12 12 11 10 9 9 9 8 8 8 9 12 14 17 18 19 20 22 24 26 29 31 33 34 35 34 33 34 33
2 7 7 6 7 3 2 14 4 7 12 11 10 11 8 8 8 10 16 16 16 14 13 11 8 7 5 5 4 5 6 9 14 17 19 20 22 23 25 28 31 33 36 37 37 37 37 35 33
Wind_Direction
335 330 327 28 55 65 330 25 302 330 342 225 92 97 164 187 157 205 313 179 214 182 181 187 188 188 188 191 191 188 184 178 174 166 160 155 148 145 145 138 149 131 112 101 89 65 75 97 101
341 341 28 76 82 65 283 264 242 261 326 34 69 78 37 283 275 293 155 184 176 185 190 192 192 192 193 194 192 190 186 185 182 179 173 167 161 158 149 158 164 153 118 108 98 30 63 96 112
350 17 76 86 104 155 192 233 255 322 352 10 28 79 167 288 299 241 250 196 195 188 193 196 195 195 197 195 193 193 193 191 189 188 187 179 168 167 164 179 186 189 123 126 301 313 280 241 204
2 19 38 79 130 231 220 215 227 351 349 38 16 10 320 325 299 283 194 187 207 198 197 199 201 201 201 204 203 203 204 203 199 198 189 186 195 173 185 193 214 270 268 258 267 275 276 279 277
44 56 55 83 288 277 264 248 174 87 47 321 9 320 296 348 60 140 181 196 211 204 204 205 206 208 210 211 211 213 214 211 209 204 194 199 211 197 198 197 211 229 245 271 257 267 270 284 280
39 85 58 130 276 284 281 294 97 66 353 323 16 337 270 339 277 177 196 208 209 205 205 213 213 216 215 217 217 218 217 216 212 212 211 226 227 212 221 213 217 226 237 254 240 252 271 283 263
104 78 169 177 298 327 333 334 61 104 335 261 208 332 294 324 258 239 199 210 206 211 215 214 217 219 223 223 223 220 220 220 214 218 217 224 233 232 234 242 238 221 225 239 238 252 265 267 221
100 88 93 269 288 332 330 343 43 91 269 327 163 260 294 297 290 223 217 221 222 219 221 220 220 220 221 223 226 224 224 224 221 222 224 229 233 237 237 248 257 235 226 228 236 253 258 241 204
118 61 162 226 136 277 337 15 287 297 280 347 279 266 286 321 284 232 233 240 241 236 230 225 225 223 223 225 225 225 228 231 232 226 229 236 235 232 239 247 256 253 239 241 235 253 251 228 212
83 110 212 214 183 244 314 324 345 6 340 298 323 310 326 333 327 322 322 312 295 277 260 248 238 232 230 229 229 227 225 231 232 235 235 238 235 242 242 250 253 259 256 253 241 256 252 230 224
153 188 196 244 202 184 246 272 175 243 309 236 307 306 333 3 30 28 27 14 342 306 283 267 252 242 238 234 233 230 227 228 234 234 236 239 242 241 241 243 251 259 259 258 249 256 261 247 237
20 245 229 242 162 288 267 307 303 199 240 64 5 324 50 51 36 23 20 16 13 10 347 292 253 245 242 240 239 238 234 230 231 238 239 240 241 243 239 241 248 258 265 264 257 256 264 255 244
195 286 284 278 277 232 275 254 248 267 261 57 74 50 43 39 29 26 21 19 13 10 5 350 297 244 240 239 242 242 241 239 237 234 239 243 241 249 249 249 249 255 263 269 263 259 258 257 251
198 274 282 282 269 270 222 252 108 287 75 66 67 53 40 39 23 19 15 10 11 8 9 6 350 277 235 237 240 246 248 246 245 252 250 247 244 244 248 257 251 253 266 268 266 262 262 260 258
355 332 329 261 283 217 159 52 231 244 73 83 67 50 40 31 30 24 18 16 14 16 15 17 18 7 243 231 240 246 250 254 256 259 258 251 247 245 253 256 260 265 262 265 263 256 255 255 255
20 43 349 288 170 32 132 263 270 311 98 88 75 57 50 36 30 26 28 29 31 32 34 34 36 39 54 184 227 248 260 256 263 262 263 269 263 259 260 262 266 268 261 262 261 254 256 257 258
2 241 220 316 312 129 147 252 270 47 101 117 99 68 50 29 24 23 35 39 42 43 44 47 49 52 65 72 81 90 101 87 20 317 290 281 276 270 269 269 272 269 262 254 249 248 255 259 261
205 217 243 241 308 20 272 273 278 300 138 129 101 72 61 50 23 22 40 48 52 55 54 56 58 64 72 74 79 77 73 70 69 57 46 27 10 341 310 287 276 273 268 254 242 245 253 260 266
164 191 220 256 261 17 251 241 267 310 101 111 112 103 84 60 31 43 53 60 59 56 56 56 55 55 63 69 66 60 62 64 62 60 55 50 38 21 353 333 320 306 289 261 260 257 258 259 263
207 266 262 279 270 165 275 278 289 29 32 121 115 94 85 71 36 33 42 54 60 62 61 61 61 60 62 66 70 73 73 60 54 51 51 49 43 39 34 26 3 344 325 303 288 273 263 262 264
196 200 212 223 326 287 321 289 226 54 79 82 77 97 85 87 69 35 40 54 60 62 64 66 64 64 68 73 79 74 68 57 44 40 41 38 38 37 37 36 33 25 12 345 326 312 287 274 276
215 202 209 218 119 224 112 270 296 140 107 82 108 111 116 109 82 65 61 63 66 67 72 73 71 70 69 73 73 72 68 64 57 55 51 47 42 39 34 30 27 25 22 16 359 335 318 300 285
228 144 166 159 156 87 290 319 257 132 164 173 166 156 138 123 110 92 83 78 75 77 76 77 77 74 71 72 76 78 77 72 65 59 59 54 49 47 44 39 33 24 16 10 6 356 343 322 302
134 99 53 50 89 217 218 189 250 195 177 167 168 163 164 154 138 118 101 94 89 83 81 81 79 78 75 73 72 72 70 64 57 51 47 43 40 38 37 37 38 37 31 23 12 2 353 342 327
86 88 337 336 356 236 109 147 245 304 314 184 169 173 176 171 169 154 128 102 92 89 87 85 83 82 79 78 76 72 69 63 58 50 43 37 33 29 25 23 23 25 23 22 19 17 13 359 342
180 161 160 229 209 251 121 234 257 330 336 138 150 169 166 181 182 168 150 133 115 104 100 100 96 94 84 78 75 68 63 59 53 46 38 33 28 23 18 15 13 14 10 8 5 6 5 2 358
185 184 173 111 65 37 226 288 238 116 71 129 155 160 192 194 191 181 171 157 142 127 115 108 103 94 84 79 74 66 58 49 41 34 28 24 17 12 8 4 0 0 359 356 352 350 350 346 341
157 159 89 358 249 247 270 266 226 210 195 190 186 200 200 205 202 186 180 170 156 143 131 123 113 103 93 84 75 65 53 43 34 23 17 10 5 0 356 352 350 348 347 344 341 338 335 332 329
126 199 89 145 155 194 259 260 237 204 177 191 204 203 200 201 199 190 185 178 173 170 162 150 132 117 106 91 76 58 41 28 19 14 5 357 351 349 346 343 340 338 336 335 334 333 331 326 322
242 206 167 196 234 235 163 262 6 164 183 184 197 208 209 203 195 190 190 185 184 184 180 175 164 153 136 115 78 41 20 4 358 355 353 347 342 340 338 335 333 331 330 329 329 327 324 321 318